Temperature
15 15 15 15 15 15 15 15 14 15 15 15 15 15 15 15 15 15 15 15 15 15 15 15 15 15 15 15 15 15 15 15 15 15 15 15 15 15 15 15 15 15 15
15 15 15 15 14 14 14 14 14 14 14 14 14 14 14 14 15 15 15 15 15 15 15 15 15 15 15 15 15 15 15 15 15 15 15 15 15 15 15 15 15 15 15
14 14 14 14 14 14 14 14 14 14 14 14 14 14 14 14 14 14 15 15 15 15 15 15 15 15 15 15 15 15 15 14 14 14 14 14 14 14 15 14 14 14 15
14 14 14 14 14 14 14 14 14 14 14 14 14 14 14 14 14 14 14 14 14 15 15 15 15 15 14 14 14 14 14 14 14 14 14 14 14 14 14 14 14 14 14
14 14 14 14 14 14 14 14 14 14 14 14 14 14 14 14 14 14 14 14 14 14 15 14 14 14 14 14 14 14 14 14 14 14 14 14 14 14 14 14 14 14 14
14 14 14 14 14 14 14 14 14 14 14 14 14 14 14 14 14 14 14 14 14 14 14 14 14 14 14 14 14 14 14 14 14 13 13 13 14 14 14 14 14 14 14
13 14 14 14 14 14 14 14 14 14 14 14 14 13 13 13 14 14 14 14 14 14 14 14 14 14 14 14 14 14 14 13 13 13 13 13 13 13 13 13 13 13 13
13 14 14 14 14 13 13 13 13 13 13 13 13 13 13 13 13 13 13 13 13 14 14 14 14 14 14 14 14 14 13 13 13 13 13 13 13 13 13 13 13 13 13
13 13 13 13 13 13 13 13 13 13 13 13 13 13 13 13 13 13 13 13 13 13 13 13 13 14 14 14 13 13 13 13 13 13 13 13 13 13 13 13 13 13 13
13 13 13 13 13 13 13 13 13 13 13 13 13 13 13 13 13 13 13 13 13 13 13 13 13 13 13 13 13 13 13 13 13 13 13 13 13 13 13 13 13 13 13
13 13 13 13 13 13 13 12 13 12 12 12 12 12 12 12 12 12 12 13 13 13 13 13 13 13 13 13 13 13 13 12 13 13 12 12 12 13 13 13 13 13 13
13 13 13 12 12 12 12 12 12 12 12 12 12 12 12 12 12 12 12 12 12 12 12 12 12 12 12 12 12 12 12 12 12 12 12 12 12 12 12 12 12 12 12
12 12 12 12 12 12 12 12 12 12 12 12 12 12 12 12 12 12 12 12 12 12 12 12 12 12 12 12 12 12 12 12 12 12 12 12 12 12 12 12 12 12 12
12 12 12 12 12 12 12 12 12 11 11 11 11 11 11 11 11 11 11 12 12 12 12 12 12 11 11 11 11 11 11 11 11 11 12 12 12 12 12 12 12 12 12
12 12 12 12 12 12 11 11 11 11 11 11 11 11 11 11 11 11 11 11 11 11 11 11 11 11 11 11 11 11 11 11 11 11 11 11 11 11 11 11 11 11 11
11 11 11 11 11 11 11 11 11 11 11 11 11 11 11 11 11 11 11 11 11 11 11 11 11 11 11 11 11 11 10 10 10 11 11 11 11 11 11 11 11 11 11
11 11 11 11 11 11 11 11 11 11 11 11 11 11 11 11 11 11 11 10 10 10 10 10 10 10 10 10 10 10 10 10 10 10 10 10 10 11 11 11 10 10 10
11 11 11 10 10 10 10 10 10 10 10 10 10 10 10 10 10 10 10 10 10 10 10 10 10 10 10 10 10 10 10 10 10 10 10 10 10 10 10 10 10 10 10
10 10 10 10 10 10 10 10 10 10 10 10 10 10 10 10 10 10 10 10 10 10 9 9 9 9 9 9 9 9 9 9 9 9 9 9 9 9 9 10 10 10 10
9 10 10 10 10 10 10 10 9 9 9 10 10 10 10 10 10 10 9 9 9 9 9 9 9 9 9 9 9 9 9 9 9 9 9 9 9 9 9 9 9 9 9
9 9 9 9 9 9 9 9 9 9 9 9 9 9 9 9 9 9 9 9 9 9 9 9 9 8 8 8 8 8 8 8 8 8 8 8 8 8 8 8 8 9 9
8 8 8 8 9 9 9 9 9 9 9 9 9 9 9 9 9 9 9 9 9 9 8 8 8 8 8 8 7 7 7 7 7 7 7 8 8 8 8 8 8 8 8
8 8 8 8 8 8 8 8 8 8 8 9 9 9 9 9 9 9 9 8 8 8 8 8 8 8 8 7 7 7 7 7 6 7 7 7 7 7 7 7 7 7 7
7 7 8 8 8 8 8 8 8 8 8 8 8 8 8 8 8 8 8 8 8 8 8 8 8 8 8 7 7 7 7 7 7 6 6 6 6 6 6 7 7 7 7
7 7 7 7 7 7 7 7 8 8 8 8 8 8 8 8 8 8 8 8 8 7 7 7 7 7 7 7 7 7 7 7 7 6 5 6 6 6 6 6 6 6 6
6 6 6 6 6 7 7 7 7 7 7 7 7 7 7 8 8 8 7 7 7 7 7 7 7 7 7 7 7 7 6 6 6 6 6 5 5 5 5 6 6 6 6
Wind_Speed
7 11 11 10 9 9 9 8 8 8 8 7 7 8 8 8 8 8 8 8 8 8 9 9 9 10 11 12 12 12 13 13 14 14 14 14 14 14 13 13 13 14 15
9 12 11 10 10 9 9 8 8 8 7 7 7 7 7 7 7 8 8 8 8 8 9 9 10 10 10 11 11 11 11 11 11 11 12 13 13 13 13 14 14 13 15
10 13 12 10 10 9 9 8 8 7 7 6 6 7 7 7 7 7 7 7 8 8 9 9 10 10 10 10 10 10 10 9 8 7 8 10 12 12 13 14 14 14 14
10 12 11 11 10 9 8 8 7 7 6 6 6 6 7 7 7 6 7 7 8 8 9 10 10 10 10 9 9 9 8 6 5 4 5 8 11 11 12 12 13 13 13
9 12 12 11 10 9 8 8 7 6 6 5 5 6 6 6 6 6 6 7 8 8 9 9 9 9 9 9 8 8 6 5 4 3 5 10 11 11 11 11 11 12 12
8 12 13 11 10 9 8 7 7 6 5 5 5 5 5 5 6 6 6 7 8 8 8 8 9 9 9 8 7 6 5 4 4 3 6 10 10 10 10 10 10 10 11
7 11 12 11 10 9 8 7 6 6 5 4 4 4 4 5 5 5 6 7 8 8 7 7 7 8 8 7 6 5 4 4 4 5 7 9 10 10 9 8 9 9 10
7 9 11 10 9 8 7 7 6 5 4 4 4 3 4 4 4 5 6 6 7 7 7 7 6 7 7 6 5 4 3 4 4 6 7 9 10 9 8 8 8 9 9
7 7 8 8 8 8 8 7 6 5 4 4 4 3 4 4 4 5 6 6 6 6 6 6 6 6 5 5 4 3 2 3 4 4 5 8 9 9 7 7 7 8 8
5 4 5 6 6 6 7 7 6 5 4 3 4 4 3 3 4 5 6 6 6 6 5 5 5 5 5 4 3 2 1 2 2 3 5 7 8 8 7 7 7 7 8
3 3 3 4 4 4 5 6 6 6 5 4 4 4 3 3 4 5 6 5 5 5 5 5 5 5 5 3 2 1 0 1 3 4 6 8 8 7 7 6 7 8 8
3 3 2 3 3 3 3 5 5 5 5 3 3 3 3 3 3 4 5 6 5 5 4 4 4 4 4 3 3 2 1 1 3 4 6 8 7 6 6 5 6 7 7
4 4 3 3 3 3 2 3 3 3 4 3 4 3 3 3 3 4 4 5 4 4 3 3 4 3 3 3 3 2 0 2 3 4 5 6 6 5 5 5 5 6 6
3 3 4 3 3 2 2 2 2 2 3 3 3 3 3 2 2 3 3 3 3 3 3 3 2 2 2 3 3 2 2 3 4 5 5 6 5 5 5 5 5 5 6
3 3 3 3 3 3 2 1 2 2 2 3 3 3 3 2 1 2 2 2 2 2 2 2 2 2 2 2 2 3 3 4 4 5 5 6 5 4 4 5 5 6 6
3 3 3 3 2 3 2 2 2 2 3 3 3 3 3 3 2 2 2 2 2 2 2 3 3 2 2 2 3 4 4 5 5 6 6 5 5 5 4 5 5 5 5
3 3 3 3 3 3 3 3 3 3 3 2 3 3 3 4 3 2 2 1 1 2 3 3 3 3 3 3 3 3 4 5 5 5 6 5 5 5 4 4 4 5 4
2 2 3 2 2 3 2 2 2 3 3 2 2 3 3 3 3 3 2 1 1 2 2 2 2 2 2 2 2 2 3 4 4 4 5 5 5 5 5 4 3 4 4
3 2 2 2 2 2 2 2 2 2 3 3 3 3 3 3 3 3 2 2 2 2 2 2 2 2 3 3 2 2 2 2 2 3 5 5 5 5 5 4 4 3 3
3 3 3 2 2 2 2 2 1 2 2 3 3 3 3 4 3 3 2 2 2 2 2 2 2 2 3 3 3 3 2 1 2 3 3 4 4 4 5 5 5 4 4
2 2 2 2 2 2 2 2 2 2 2 2 2 3 3 3 3 3 2 2 2 2 2 2 3 3 2 2 3 2 2 2 2 2 3 3 4 4 5 5 5 5 4
2 1 2 2 2 3 2 2 2 2 2 2 2 3 3 3 3 2 2 2 2 2 2 3 3 2 1 1 2 2 1 2 2 2 2 2 3 3 4 4 5 4 4
1 0 1 2 2 2 2 1 1 2 1 2 2 2 2 3 3 2 3 3 2 2 2 3 3 3 3 1 1 2 2 2 0 1 1 1 2 2 2 3 4 3 3
1 1 1 1 2 2 2 3 3 3 2 3 3 3 3 4 4 3 3 3 3 2 2 3 3 3 4 3 1 0 1 3 2 0 1 1 0 1 1 1 2 2 2
2 1 1 0 2 2 3 3 3 2 2 2 2 3 3 3 4 4 3 3 3 3 3 3 3 3 3 3 2 1 1 1 1 2 2 1 1 1 0 1 2 1 1
2 2 1 0 1 1 2 3 3 3 2 2 2 3 3 3 3 4 4 3 3 3 3 3 3 3 3 3 3 2 2 2 2 1 2 2 2 2 1 0 1 2 2
Wind_Direction
113 119 126 122 118 115 112 106 100 95 89 87 87 88 87 85 84 81 81 83 87 86 88 89 89 87 83 82 84 85 84 84 82 81 78 77 78 78 77 77 80 80 83
119 124 127 122 119 117 114 109 102 95 90 89 88 92 92 89 88 85 81 83 89 89 88 88 88 90 87 84 85 86 88 88 88 87 84 79 78 78 75 74 82 87 85
116 124 127 123 119 116 112 109 104 98 91 91 91 92 94 90 88 88 86 86 89 90 90 90 88 86 89 87 87 87 87 89 91 91 95 94 87 82 79 78 85 88 88
116 122 127 125 123 119 114 108 103 99 95 94 95 95 97 94 90 87 89 91 90 91 91 89 89 85 85 87 90 90 85 82 79 81 94 103 97 90 85 83 87 89 91
114 120 124 128 126 123 117 111 104 100 97 94 94 97 101 98 94 89 88 94 97 95 93 90 89 87 86 86 91 89 81 68 52 64 78 90 94 97 92 88 89 91 92
116 116 123 131 131 127 123 117 110 104 99 98 94 98 103 102 100 95 91 98 103 100 96 94 94 90 87 85 85 81 71 52 36 62 82 91 97 100 97 96 95 97 96
113 115 128 135 136 132 129 124 117 111 104 103 103 105 110 109 108 104 102 103 108 107 104 101 99 95 92 87 85 74 56 41 42 67 79 87 99 101 98 102 104 101 101
106 112 129 139 139 137 134 129 124 117 112 107 108 111 118 115 111 112 113 113 111 110 112 112 109 104 97 89 84 73 52 36 37 70 83 94 103 104 100 101 107 107 104
95 105 119 133 138 139 136 132 128 121 114 111 113 117 123 123 118 120 119 118 115 111 112 120 119 115 109 98 83 68 47 16 13 63 85 99 106 104 102 103 109 110 110
99 103 111 121 127 137 141 140 138 134 130 128 132 130 126 135 131 123 120 117 117 114 117 127 129 127 126 116 96 70 41 350 13 69 83 99 108 110 105 104 107 110 110
116 116 111 116 126 132 144 146 148 149 148 149 151 146 139 131 129 131 128 127 124 121 119 128 141 144 143 143 146 131 328 328 49 75 90 104 106 110 108 102 101 107 108
156 147 137 127 118 129 144 140 153 155 151 151 139 139 139 135 139 139 137 137 135 134 133 143 147 150 158 164 172 189 236 93 62 83 102 112 111 111 113 110 109 111 109
164 158 150 143 135 126 113 137 139 148 145 144 125 121 134 134 125 121 125 132 138 140 134 143 154 165 172 148 139 154 149 95 92 86 100 113 112 118 126 125 125 127 120
156 155 148 144 140 139 129 121 125 122 127 121 119 114 98 90 87 105 115 124 132 138 128 124 130 133 123 117 128 134 111 79 79 78 89 107 111 119 136 138 140 140 134
161 157 147 152 158 152 143 139 124 116 108 123 121 120 105 97 99 93 95 109 118 118 111 113 107 88 82 82 81 80 76 83 81 82 84 94 104 112 133 144 142 134 135
175 164 154 166 159 153 155 159 131 119 118 114 126 135 125 110 98 95 87 73 78 103 106 106 115 108 93 80 66 59 61 70 78 83 84 84 88 99 114 129 134 130 126
175 162 160 165 158 164 166 165 145 134 128 117 127 138 128 119 104 88 91 73 65 93 95 94 94 96 96 83 67 54 51 58 63 75 78 77 76 78 95 115 129 134 137
151 151 156 167 160 169 159 150 139 141 135 125 131 133 126 116 112 101 111 101 72 87 98 104 101 91 89 84 73 61 53 55 52 65 76 79 76 76 75 82 114 139 145
151 145 145 149 159 164 153 139 135 140 143 137 136 128 136 128 121 111 119 116 109 94 94 112 109 104 91 81 78 69 63 64 58 71 75 75 76 81 81 80 90 116 139
140 135 140 143 144 142 142 135 143 149 144 143 138 134 135 137 135 122 125 134 125 128 125 118 114 105 110 109 84 65 55 58 59 72 82 84 78 83 85 84 87 90 103
123 132 145 149 154 147 156 161 169 183 177 163 145 139 132 130 139 138 139 150 143 145 153 139 121 111 104 109 91 71 37 54 69 68 73 84 80 79 75 76 79 85 87
126 139 155 159 168 165 172 178 170 164 176 166 147 150 148 138 137 157 152 157 156 157 154 144 137 131 128 129 123 119 75 16 20 48 56 67 68 69 69 67 71 76 82
75 207 204 183 172 164 160 150 132 113 113 136 162 168 170 159 160 170 176 159 159 158 164 164 162 149 156 193 157 147 151 184 358 359 34 59 68 60 69 77 65 64 83
352 348 287 194 175 171 165 170 169 176 186 188 173 174 176 168 172 182 176 171 165 163 172 183 176 162 159 178 204 226 158 145 147 148 322 354 55 56 49 99 104 89 104
15 10 332 219 175 175 182 182 184 193 195 164 150 163 177 177 176 179 177 171 175 173 181 186 183 176 170 176 180 177 93 77 136 164 223 253 313 283 220 147 134 133 176
21 10 360 331 203 182 187 194 195 199 180 161 164 177 186 184 178 179 182 178 183 181 184 187 189 188 185 186 186 176 169 172 187 181 200 219 244 259 264 163 155 161 195
Height
1518 1519 1520 1521 1523 1524 1525 1526 1527 1528 1529 1530 1530 1531 1532 1533 1533 1534 1535 1535 1536 1537 1537 1538 1538 1539 1540 1541 1541 1542 1543 1543 1544 1545 1545 1546 1546 1547 1547 1548 1548 1549 1549
1517 1519 1520 1521 1523 1524 1525 1526 1527 1528 1529 1530 1531 1532 1532 1533 1534 1535 1535 1536 1537 1538 1538 1539 1539 1540 1541 1542 1542 1543 1544 1545 1546 1546 1547 1547 1548 1549 1549 1549 1550 1550 1551
1517 1518 1520 1521 1523 1524 1525 1526 1527 1528 1529 1530 1531 1532 1533 1533 1534 1535 1536 1537 1537 1538 1539 1540 1540 1541 1542 1543 1543 1544 1545 1546 1547 1548 1548 1549 1549 1550 1551 1551 1552 1552 1553
1517 1518 1520 1521 1523 1524 1525 1526 1527 1528 1529 1530 1531 1532 1533 1533 1534 1535 1536 1537 1538 1538 1539 1540 1541 1542 1543 1544 1544 1545 1546 1547 1548 1549 1550 1550 1551 1551 1552 1552 1553 1553 1554
1518 1518 1520 1521 1522 1524 1525 1526 1527 1528 1529 1530 1531 1531 1532 1533 1534 1535 1536 1537 1538 1539 1540 1541 1541 1542 1543 1544 1545 1546 1547 1548 1549 1550 1551 1551 1552 1552 1553 1553 1554 1554 1555
1518 1518 1519 1521 1522 1523 1524 1525 1526 1527 1528 1529 1530 1531 1532 1533 1534 1535 1536 1537 1538 1539 1540 1541 1542 1543 1544 1545 1546 1547 1548 1549 1550 1550 1551 1552 1552 1553 1553 1554 1555 1555 1556
1518 1518 1519 1521 1522 1523 1524 1525 1526 1527 1528 1529 1529 1530 1531 1532 1533 1534 1535 1536 1537 1539 1540 1541 1542 1543 1544 1545 1546 1547 1548 1549 1550 1551 1552 1552 1553 1553 1554 1555 1555 1556 1557
1518 1518 1519 1520 1521 1522 1523 1524 1525 1526 1527 1528 1529 1530 1531 1532 1533 1534 1535 1536 1537 1538 1539 1540 1542 1543 1544 1545 1546 1547 1548 1549 1550 1551 1552 1553 1553 1554 1554 1555 1556 1557 1557
1517 1518 1518 1520 1521 1522 1523 1524 1524 1525 1526 1527 1528 1529 1530 1531 1532 1533 1534 1535 1536 1538 1539 1540 1541 1542 1543 1545 1546 1547 1548 1549 1550 1551 1552 1553 1553 1554 1555 1555 1556 1557 1558
1516 1517 1518 1519 1520 1521 1522 1523 1524 1525 1525 1526 1527 1528 1529 1530 1531 1532 1533 1534 1536 1537 1538 1539 1541 1542 1543 1544 1545 1547 1548 1549 1550 1551 1552 1552 1553 1554 1555 1555 1556 1557 1558
1515 1516 1517 1518 1519 1520 1521 1522 1523 1524 1524 1525 1526 1527 1528 1529 1530 1531 1532 1533 1535 1536 1537 1539 1540 1541 1542 1543 1545 1546 1547 1548 1549 1550 1551 1552 1553 1554 1555 1555 1556 1557 1558
1513 1514 1516 1517 1518 1519 1520 1521 1522 1522 1523 1524 1525 1526 1527 1528 1529 1530 1532 1533 1534 1535 1536 1538 1539 1540 1541 1542 1544 1545 1546 1547 1548 1549 1550 1551 1552 1553 1554 1555 1556 1557 1558
1512 1513 1514 1515 1516 1517 1518 1519 1520 1521 1522 1523 1524 1525 1526 1527 1528 1529 1530 1532 1533 1534 1535 1537 1538 1539 1540 1541 1543 1544 1545 1546 1547 1548 1550 1551 1551 1552 1553 1554 1555 1556 1557
1510 1511 1512 1513 1514 1515 1516 1517 1519 1520 1521 1522 1523 1524 1525 1526 1527 1528 1529 1530 1532 1533 1534 1535 1536 1538 1539 1540 1542 1543 1544 1545 1546 1547 1548 1549 1550 1551 1552 1553 1554 1555 1556
1508 1509 1510 1511 1512 1513 1514 1515 1516 1518 1519 1521 1522 1523 1524 1525 1526 1526 1528 1529 1530 1531 1532 1534 1535 1536 1538 1539 1540 1542 1543 1544 1545 1546 1547 1548 1549 1550 1551 1552 1553 1554 1555
1505 1506 1507 1509 1510 1511 1512 1513 1515 1516 1517 1519 1520 1521 1522 1523 1524 1525 1526 1527 1528 1530 1531 1532 1534 1535 1536 1537 1539 1540 1541 1542 1543 1544 1545 1546 1547 1548 1549 1551 1552 1553 1554
1503 1504 1505 1506 1507 1509 1510 1511 1513 1514 1515 1517 1518 1519 1520 1521 1522 1523 1524 1526 1527 1528 1530 1531 1532 1533 1535 1536 1537 1538 1539 1541 1542 1543 1543 1544 1545 1546 1547 1549 1550 1551 1552
1501 1502 1503 1504 1505 1506 1507 1509 1510 1512 1513 1514 1516 1517 1518 1519 1521 1521 1523 1524 1525 1526 1528 1529 1530 1531 1533 1534 1535 1536 1538 1539 1540 1541 1542 1543 1544 1545 1546 1546 1548 1549 1550
1498 1499 1500 1501 1502 1503 1505 1506 1508 1509 1511 1512 1513 1514 1516 1517 1518 1519 1521 1522 1523 1524 1525 1527 1529 1530 1531 1532 1534 1535 1536 1537 1538 1539 1540 1541 1542 1543 1544 1544 1546 1547 1548
1496 1496 1497 1498 1499 1501 1502 1504 1505 1507 1508 1510 1511 1512 1513 1515 1516 1517 1518 1520 1521 1522 1523 1525 1526 1528 1529 1531 1532 1533 1534 1535 1536 1537 1538 1539 1540 1541 1541 1542 1543 1544 1545
1493 1494 1494 1495 1496 1498 1499 1501 1502 1504 1506 1507 1508 1509 1511 1512 1514 1515 1516 1517 1519 1520 1522 1523 1524 1526 1527 1529 1530 1531 1533 1534 1534 1535 1536 1537 1538 1539 1539 1540 1541 1542 1542
1490 1491 1492 1493 1494 1495 1497 1498 1500 1502 1503 1504 1506 1507 1508 1510 1511 1512 1513 1515 1516 1518 1519 1520 1522 1523 1525 1527 1528 1529 1531 1533 1533 1534 1535 1535 1536 1537 1538 1538 1538 1539 1540
1488 1489 1489 1490 1491 1493 1494 1496 1498 1499 1500 1502 1503 1504 1506 1507 1508 1510 1511 1512 1514 1515 1516 1518 1520 1521 1522 1525 1526 1528 1529 1529 1531 1532 1533 1534 1534 1535 1536 1537 1536 1537 1538
1486 1487 1487 1488 1489 1490 1491 1493 1494 1495 1497 1498 1500 1501 1503 1504 1505 1507 1508 1509 1511 1513 1514 1516 1517 1519 1520 1521 1523 1525 1527 1527 1528 1529 1531 1531 1532 1533 1533 1534 1534 1534 1535
1484 1485 1485 1486 1487 1488 1489 1490 1491 1493 1494 1496 1497 1499 1500 1501 1502 1503 1505 1506 1508 1509 1511 1513 1514 1515 1517 1518 1520 1521 1523 1524 1525 1526 1527 1528 1529 1530 1531 1531 1531 1532 1532
1482 1483 1483 1483 1484 1485 1486 1487 1488 1489 1491 1492 1494 1495 1497 1498 1499 1500 1502 1503 1505 1506 1508 1509 1511 1512 1514 1515 1516 1518 1519 1520 1522 1523 1523 1524 1525 1527 1527 1528 1528 1529 1529